{"data":{"norad_id":67641,"epoch":"2026-09-19T21:58:26.414400Z","epoch_age_seconds":119293,"freshness":"FRESH","line1":"1 67641U 26020AA  26262.91558350  .00010887  00000+0  40415-3 0  9998","line2":"2 67641  42.9995 123.2575 0000999 264.6403  95.4335 15.27612063 35810","mean_motion":15.27612063,"eccentricity":9.99e-5,"inclination_deg":42.9995,"raan_deg":123.2575,"arg_perigee_deg":264.6403,"mean_anomaly_deg":95.4335,"bstar":0.00040415,"rev_number":3581,"period_min":94.264770151923,"perigee_km":482.26766666237,"apogee_km":483.63851246226,"semimajor_km":6861.0900895623,"source":"CELESTRAK","updated_at":"2026-09-20T09:00:43.616376Z"}}